Tracking 19199 objects as of 25-Jun-2018
HD Live streaming from Space Station
objects crossing your sky now

FENGYUN 1C DEB

Track FENGYUN 1C DEB now!
10-day predictions


NORAD ID: 31812
Int'l Code: 1999-025CHA
Perigee: 850.0 km
Apogee: 949.5 km
Inclination: 99.0 °
Period: 102.8 minutes
Semi major axis: 7270 km
RCS: 0.0063 m2 (small)
Launch date: May 10, 1999
Source: People's Republic of China (PRC)
Launch site: Taiyaun Space Center, China (TSC)

Note: This is SATELLITE DEBRIS
aabbcc
Your satellite tracking list
Your tracking list is empty




NASA's NSSDC Master Catalog

Two Line Element Set (TLE):
1 31812U 99025CHA 18173.44495677 -.00000038 +00000-0 +45651-5 0  9994
2 31812 099.0167 248.5534 0068473 237.6062 121.8465 14.00339910303984
Source of the keplerian elements: AFSPC